Tracking 18980 objects as of 20-Feb-2018
HD Live streaming from Space Station
objects crossing your sky now

FENGYUN 1C DEB

Track FENGYUN 1C DEB now!
10-day predictions


NORAD ID: 35088
Int'l Code: 1999-025DJQ
Perigee: 729.5 km
Apogee: 1,259.2 km
Inclination: 94.7 °
Period: 104.8 minutes
Semi major axis: 7365 km
RCS: 0.0088 m2 (small)
Launch date: May 10, 1999
Source: People's Republic of China (PRC)
Launch site: Taiyaun Space Center, China (TSC)

Note: This is SATELLITE DEBRIS
aabbcc
Your satellite tracking list
Your tracking list is empty




NASA's NSSDC Master Catalog

Two Line Element Set (TLE):
1 35088U 99025DJQ 18044.15953795 -.00000337  00000-0 -22088-3 0  9998
2 35088  94.6826 179.6020 0359613  32.7384  87.7911 13.73452432506907
Source of the keplerian elements: AFSPC